Find Starlink 5510

NORAD ID: 55647 Int'l Des: 2023-021 Owner: SPXS Country: US Constellation: starlink operational
LEOCIRCULAR

現在のビュー

3D地球を読み込み中...

About Starlink 5510

Starlink 5510 (NORAD 55647) is a starlink constellation satellite (v1.5) launched Feb 17, 2023 by SPXS of US. It operates in LEO, CIRCULAR orbit with a mass of 305.00 kg.

Starlink 5510について

説明を読み込み中...

次回通過

Passes for default location (London). Set your location on the main map for personalized predictions.

高度履歴

Loading altitude history...

軌道要素

1 55647U 23021V 26173.56129267 .00000283 00000-0 31547-4 0 9999
2 55647 69.9993 279.8935 0003293 269.4798 90.5984 14.98331624184503
Epoch: Jun 22, 2026 • Age: 26 hours

現在のステータス

高度 579.4 km
速度 7.57 km/s
衛星直下点 42.89°N, 69.86°W
打ち上げ日 Feb 17, 2023
運用期間 3.3 years
タイプ internet

技術仕様

分類 Payload
質量 305.00 kg
乾燥質量 290.00 kg
総質量 305.00 kg
長さ 0.20 m
直径 2.80 m
スパン 9.00 m
形状 Box + pan
製造者 SPXS
バスタイプ Starlink
フェーズステータス In Orbit
所有者/国 SPXS/US

Most Searched